Preview of NWS' New Version of Forecast
This preview is not operational and should not be used for support decisions.

Regional Weather Roundup (RWR)

Issued by National Weather Service (NWS)

                            
000
ASPQ40 PGUM 222110
RWRPQ 
WEATHER ROUNDUP FOR THE MARIANAS AND MICRONESIA
NATIONAL WEATHER SERVICE TIYAN GU
700 AM CHST FRI AUG 23 2019

GUZ001>004-222200-
MARIANA ISLANDS-
  
CITY           SKY/WX    TMP DP  RH WIND       PRES   REMARKS
GUAM AIRPORT   SUNNY     82  75  78 NE10      29.83R                  
ANDERSEN AFB   PTSUNNY   82  75  78 E16G23    29.84R                  
ROTA AIRPORT   PTSUNNY   81  72  74 NE12      29.81                   
TINIAN AP      MOSUNNY   82  79  89 E12       29.80F HX  93           
SAIPAN AP      MOSUNNY   82  79  89 NE12      29.84S HX  93           

$$

PMZ161-222200-
REPUBLIC OF PALAU-
  
CITY           SKY/WX    TMP DP  RH WIND       PRES   REMARKS
KOROR AP       NOT AVBL                                               
KOROR WSO      NOT AVBL                                               

$$

PMZ171>174-222200-
FEDERATED STATES OF MICRONESIA-
  
CITY           SKY/WX    TMP DP  RH WIND       PRES   REMARKS
YAP AIRPORT    CLOUDY    77  75  94 VRB3      29.86S                  
CHUUK AP       CLOUDY    81  79  94 VRB3      29.78R                  
POHNPEI AP     CLOUDY    81  77  89 E3        29.81R                  
POHNPEI WSO    PTSUNNY   81  77  89 VRB3      29.86R                  
KOSRAE AP      NOT AVBL                                               

$$

PMZ181-222200-
REPUBLIC OF THE MARSHALL ISLANDS-
  
CITY           SKY/WX    TMP DP  RH WIND       PRES   REMARKS
KWAJALEIN AP   PTSUNNY   81  77  89 SE12      29.91R                  
MAJURO AP      NOT AVBL                                               
MAJURO WSO     PTSUNNY   81  75  83 E6        29.86R                  

$$